This is the latest recevied weather packets stored in our database for station/object PY2SDN-13. If no packets are shown the sender has not sent any weather packets the latest 10 day(s).
| Time | Temp. | Humidity | Pressure | Rain* | Wind** | Luminosity | Snow |
|---|---|---|---|---|---|---|---|
| 1777779004 | 23.33° C | 26% | 1017.6 hPa | 0 mm | - | 0 W/m² | - |
| 1777778104 | 22.78° C | 26% | 1017.4 hPa | 0 mm | - | 0 W/m² | - |
| 1777777204 | 22.78° C | 26% | 1016.9 hPa | 0 mm | - | 0 W/m² | - |
| 1777776304 | 23.33° C | 26% | 1017.1 hPa | 0 mm | - | 0 W/m² | - |
| 1777775404 | 23.33° C | 26% | 1016.5 hPa | 0 mm | - | 0 W/m² | - |
| 1777774504 | 23.33° C | 26% | 1016 hPa | 0 mm | - | 0 W/m² | - |
| 1777773604 | 23.89° C | 26% | 1016.1 hPa | 0 mm | - | 0 W/m² | - |
| 1777772704 | 24.44° C | 26% | 1016.2 hPa | 0 mm | - | 0 W/m² | - |
| 1777771804 | 24.44° C | 26% | 1016.1 hPa | 0 mm | - | 0 W/m² | - |
| 1777770904 | 24.44° C | 26% | 1016.3 hPa | 0 mm | - | 0 W/m² | - |
| 1777770004 | 23.89° C | 26% | 1016.4 hPa | 0 mm | - | 0 W/m² | - |
| 1777769104 | 23.89° C | 26% | 1016.4 hPa | 0 mm | - | 0 W/m² | - |
| 1777768205 | 23.89° C | 26% | 1016.8 hPa | 0 mm | - | 0 W/m² | - |
| 1777767304 | 23.89° C | 26% | 1016.6 hPa | 0 mm | - | 0 W/m² | - |
| 1777766404 | 24.44° C | 26% | 1016.3 hPa | 0 mm | - | 0 W/m² | - |
| 1777765504 | 24.44° C | 26% | 1016 hPa | 0 mm | - | 0 W/m² | - |
| 1777764604 | 24.44° C | 26% | 1015.9 hPa | 0 mm | - | 0 W/m² | - |
| 1777763704 | 24.44° C | 26% | 1016 hPa | 0 mm | - | 0 W/m² | - |
| 1777762804 | 24.44° C | 26% | 1015.7 hPa | 0 mm | - | 0 W/m² | - |
| 1777761904 | 24.44° C | 26% | 1015.6 hPa | 0 mm | - | 0 W/m² | - |
| 1777761004 | 24.44° C | 26% | 1015.3 hPa | 0 mm | - | 0 W/m² | - |
| 1777760104 | 24.44° C | 26% | 1015 hPa | 0 mm | - | 0 W/m² | - |
| 1777759204 | 25° C | 26% | 1014.8 hPa | 0 mm | - | 0 W/m² | - |
| 1777758304 | 24.44° C | 26% | 1014.6 hPa | 0 mm | - | 0 W/m² | - |
| 1777757404 | 24.44° C | 26% | 1014.9 hPa | 0 mm | - | 0 W/m² | - |
* Rain latest hour (hover to see other rain measurements)
** Current wind speed in m/s (hover to see current wind gust speed)